contact:dominique.lefevre@mio.osupytheas.fr, maurice.libes@osupytheas.fr, didier.mallarino@osupytheas.fr
Project:EMSO http://www.emso-fr.org/EMSO-France
Depth: 2436.0 m
Title:EMSO Ligure Ouest : Data MII capteur AQUADOPP
Date,Latitude,Longitude,X_East,Y_North,Z_Up,Amplitude_X,Amplitude_Y,Amplitude_Z,Batterie,SoundSpeed,Heading,Pitch,Roll,Pressure,TIS,Speed,Direction
, degrees North, degrees East, m.s-1, m.s-1,m.s-1, 1, 1, 1, Volt, m.s-1, degree, degree, degree, dbar, degree_C, m.s-1, degree
2021-04-10T00:04:03,42.805,6.029,-0.008,-0.027,0.025,103.0,103.0,102.0,13.4,1505.2,327.6,-0.7,1.8,2469.331,13.28,0.028,196.5
2021-04-10T00:07:03,42.805,6.029,-0.018,-0.014,-0.007,103.0,102.0,100.0,13.4,1505.2,327.3,-0.8,1.8,2469.313,13.28,0.022,232.1
2021-04-10T00:10:03,42.805,6.029,-0.025,-0.003,0.013,103.0,103.0,101.0,13.3,1505.2,325.1,-0.7,1.8,2469.283,13.28,0.025,263.2
2021-04-10T00:13:03,42.805,6.029,-0.033,-0.026,-0.001,103.0,103.0,102.0,13.3,1505.2,326.6,-0.7,1.8,2469.295,13.28,0.042,231.8
2021-04-10T00:16:03,42.805,6.029,-0.025,-0.023,-0.022,103.0,103.0,101.0,13.3,1505.2,327.3,-0.8,1.8,2469.305,13.28,0.033,227.4
2021-04-10T00:19:03,42.805,6.029,-0.012,-0.01,0.015,105.0,102.0,100.0,13.4,1505.2,324.3,-0.8,1.8,2469.308,13.28,0.015,230.2
2021-04-10T00:22:03,42.805,6.029,-0.033,-0.032,-0.023,103.0,102.0,101.0,13.4,1505.2,327.5,-0.8,1.8,2469.288,13.28,0.045,225.9
2021-04-10T00:25:03,42.805,6.029,-0.042,-0.026,-0.003,103.0,102.0,101.0,13.4,1505.2,326.5,-0.8,1.8,2469.29,13.28,0.049,238.2
2021-04-10T00:28:03,42.805,6.029,-0.015,-0.023,0.011,103.0,104.0,99.0,13.4,1505.2,324.7,-0.8,1.9,2469.367,13.28,0.027,213.1
2021-04-10T00:31:03,42.805,6.029,-0.037,-0.021,-0.001,103.0,103.0,101.0,13.4,1505.2,325.4,-0.7,1.9,2469.29,13.28,0.042,240.4
2021-04-10T00:34:03,42.805,6.029,-0.026,-0.02,-0.007,102.0,103.0,101.0,13.3,1505.2,324.0,-0.8,1.8,2469.319,13.28,0.032,232.4
2021-04-10T00:37:03,42.805,6.029,-0.059,-0.023,-0.011,103.0,102.0,100.0,13.3,1505.2,323.8,-0.8,1.9,2469.29,13.28,0.063,248.7
2021-04-10T00:40:03,42.805,6.029,-0.024,-0.005,0.021,103.0,102.0,101.0,13.3,1505.2,328.8,-0.7,1.8,2469.291,13.28,0.024,258.2
2021-04-10T00:43:03,42.805,6.029,-0.011,-0.02,0.02,104.0,101.0,100.0,13.3,1505.2,327.6,-0.8,1.8,2469.3,13.28,0.022,208.8
2021-04-10T00:46:03,42.805,6.029,-0.036,-0.006,0.008,103.0,103.0,100.0,13.3,1505.2,328.6,-0.7,1.8,2469.346,13.28,0.036,260.5
2021-04-10T00:49:03,42.805,6.029,-0.035,-0.008,0.036,102.0,103.0,102.0,13.4,1505.2,327.5,-0.7,1.8,2469.322,13.28,0.035,257.1
2021-04-10T00:52:03,42.805,6.029,-0.022,-0.026,-0.003,102.0,103.0,101.0,13.4,1505.2,325.0,-0.8,1.8,2469.323,13.28,0.034,220.2
2021-04-10T00:55:03,42.805,6.029,-0.037,0.0,0.001,102.0,102.0,101.0,13.4,1505.2,327.0,-0.8,1.8,2469.312,13.28,0.037,270.0
2021-04-10T00:58:03,42.805,6.029,-0.026,-0.035,-0.006,103.0,103.0,100.0,13.4,1505.2,326.0,-0.8,1.8,2469.303,13.28,0.043,216.6
2021-04-10T01:04:03,42.805,6.029,-0.038,-0.017,0.018,103.0,103.0,101.0,13.4,1505.2,327.2,-0.8,1.8,2469.357,13.28,0.041,245.9
2021-04-10T01:07:03,42.805,6.029,-0.025,-0.016,-0.007,104.0,103.0,101.0,13.4,1505.2,328.9,-0.8,1.8,2469.365,13.28,0.029,237.4
2021-04-10T01:10:03,42.805,6.029,-0.027,-0.016,-0.004,103.0,102.0,101.0,13.4,1505.2,327.4,-0.8,1.8,2469.354,13.28,0.031,239.3
2021-04-10T01:13:03,42.805,6.029,-0.037,-0.012,0.013,102.0,102.0,100.0,13.3,1505.2,326.3,-0.7,1.8,2469.342,13.28,0.038,252.0
2021-04-10T01:16:03,42.805,6.029,-0.047,-0.034,-0.019,104.0,101.0,100.0,13.4,1505.2,325.3,-0.8,1.8,2469.315,13.28,0.058,234.1
2021-04-10T01:19:03,42.805,6.029,-0.032,-0.013,-0.003,102.0,101.0,102.0,13.4,1505.2,325.8,-0.8,1.8,2469.358,13.28,0.034,247.9
2021-04-10T01:22:03,42.805,6.029,-0.014,-0.02,-0.033,101.0,104.0,99.0,13.4,1505.2,325.3,-0.8,1.8,2469.407,13.28,0.024,215.0
2021-04-10T01:25:03,42.805,6.029,-0.022,-0.011,0.011,103.0,100.0,101.0,13.3,1505.2,325.4,-0.8,1.8,2469.365,13.28,0.024,243.4
2021-04-10T01:28:03,42.805,6.029,-0.031,-0.02,-0.007,102.0,103.0,101.0,13.4,1505.2,323.6,-0.8,1.8,2469.421,13.28,0.036,237.2
2021-04-10T01:31:03,42.805,6.029,-0.027,-0.023,-0.016,102.0,104.0,99.0,13.4,1505.2,325.6,-0.7,1.8,2469.44,13.28,0.035,229.6
2021-04-10T01:34:03,42.805,6.029,-0.028,-0.022,0.044,103.0,102.0,101.0,13.3,1505.2,323.9,-0.7,1.8,2469.424,13.28,0.035,231.8
2021-04-10T01:37:03,42.805,6.029,-0.016,-0.015,0.008,103.0,103.0,99.0,13.4,1505.2,324.0,-0.7,1.8,2469.498,13.28,0.021,226.9
2021-04-10T01:40:03,42.805,6.029,-0.015,-0.027,-0.03,104.0,101.0,100.0,13.3,1505.2,328.9,-0.7,1.8,2469.504,13.28,0.03,209.1
2021-04-10T01:43:03,42.805,6.029,-0.017,-0.007,-0.004,103.0,103.0,100.0,13.4,1505.2,326.7,-0.7,1.8,2469.504,13.28,0.018,247.6
2021-04-10T01:46:03,42.805,6.029,-0.043,-0.007,-0.006,103.0,101.0,101.0,13.4,1505.2,328.6,-0.8,1.8,2469.473,13.28,0.043,260.8
2021-04-10T01:49:03,42.805,6.029,-0.015,-0.033,-0.01,102.0,105.0,100.0,13.4,1505.2,325.5,-0.7,1.8,2469.567,13.28,0.036,204.4
2021-04-10T01:52:03,42.805,6.029,-0.033,-0.028,0.008,101.0,102.0,102.0,13.4,1505.2,325.4,-0.7,1.8,2469.568,13.28,0.043,229.7
2021-04-10T01:55:03,42.805,6.029,-0.047,-0.02,-0.015,103.0,103.0,100.0,13.3,1505.2,327.7,-0.8,1.8,2469.557,13.28,0.051,247.0
2021-04-10T01:58:03,42.805,6.029,-0.044,-0.022,0.0,101.0,103.0,102.0,13.4,1505.2,326.7,-0.7,1.8,2469.645,13.28,0.049,243.4
2021-04-10T02:04:03,42.805,6.029,-0.04,-0.006,0.022,104.0,103.0,102.0,13.4,1505.2,326.8,-0.7,1.8,2469.695,13.28,0.04,261.5
2021-04-10T02:07:03,42.805,6.029,-0.048,-0.007,0.012,103.0,104.0,101.0,13.3,1505.2,326.9,-0.7,1.8,2469.698,13.28,0.048,261.7
2021-04-10T02:10:03,42.805,6.029,-0.026,-0.009,-0.017,104.0,103.0,101.0,13.4,1505.2,327.4,-0.7,1.8,2469.722,13.28,0.027,250.9
2021-04-10T02:13:03,42.805,6.029,-0.046,-0.01,-0.019,105.0,104.0,102.0,13.4,1505.2,327.3,-0.7,1.8,2469.743,13.28,0.047,257.7
2021-04-10T02:16:03,42.805,6.029,-0.015,-0.013,0.021,103.0,103.0,100.0,13.4,1505.2,328.4,-0.8,1.8,2469.755,13.28,0.019,229.1
2021-04-10T02:19:03,42.805,6.029,-0.023,-0.004,-0.015,103.0,102.0,100.0,13.4,1505.2,324.7,-0.7,1.8,2469.76,13.28,0.023,260.1
2021-04-10T02:22:03,42.805,6.029,-0.033,-0.028,-0.017,103.0,103.0,100.0,13.4,1505.2,325.9,-0.8,1.8,2469.745,13.28,0.043,229.7
2021-04-10T02:25:03,42.805,6.029,-0.033,-0.014,0.013,103.0,101.0,101.0,13.3,1505.2,323.9,-0.7,1.9,2469.744,13.28,0.035,247.0
2021-04-10T02:28:03,42.805,6.029,-0.027,-0.012,-0.007,102.0,103.0,101.0,13.4,1505.2,324.1,-0.8,1.8,2469.767,13.28,0.029,246.0
2021-04-10T02:31:03,42.805,6.029,-0.031,-0.01,0.008,103.0,103.0,101.0,13.4,1505.2,327.0,-0.8,1.8,2469.704,13.28,0.032,252.1
2021-04-10T02:34:03,42.805,6.029,-0.044,-0.004,-0.017,102.0,103.0,101.0,13.3,1505.2,327.6,-0.8,1.8,2469.687,13.28,0.044,264.8
2021-04-10T02:37:03,42.805,6.029,-0.034,-0.001,-0.01,102.0,100.0,101.0,13.3,1505.2,325.2,-0.7,1.9,2469.681,13.28,0.034,268.3
2021-04-10T02:40:03,42.805,6.029,-0.016,-0.017,0.017,103.0,101.0,101.0,13.4,1505.2,327.2,-0.8,1.8,2469.662,13.28,0.023,223.3
2021-04-10T02:43:03,42.805,6.029,-0.032,0.002,0.004,102.0,102.0,101.0,13.4,1505.2,326.9,-0.7,1.8,2469.664,13.28,0.032,273.6
2021-04-10T02:46:03,42.805,6.029,-0.027,-0.011,0.017,103.0,103.0,101.0,13.4,1505.2,325.3,-0.7,1.8,2469.638,13.28,0.029,247.8
2021-04-10T02:49:03,42.805,6.029,-0.045,-0.003,0.011,101.0,101.0,100.0,13.4,1505.2,323.5,-0.7,1.8,2469.619,13.28,0.045,266.2
2021-04-10T02:52:03,42.805,6.029,-0.046,-0.018,0.005,102.0,102.0,100.0,13.4,1505.2,328.7,-0.8,1.8,2469.607,13.28,0.049,248.6
2021-04-10T02:55:03,42.805,6.029,-0.008,-0.011,0.015,102.0,104.0,100.0,13.4,1505.2,324.6,-0.8,1.9,2469.57,13.28,0.013,216.0
2021-04-10T02:58:03,42.805,6.029,-0.026,0.004,0.016,103.0,102.0,100.0,13.4,1505.2,327.6,-0.8,1.8,2469.563,13.28,0.026,278.7
2021-04-10T03:04:03,42.805,6.029,-0.055,-0.003,-0.019,102.0,105.0,101.0,13.4,1505.2,327.3,-0.8,1.8,2469.624,13.28,0.055,266.9
2021-04-10T03:07:03,42.805,6.029,-0.046,0.0,0.006,102.0,103.0,101.0,13.3,1505.2,327.3,-0.8,1.9,2469.538,13.28,0.046,270.0
2021-04-10T03:10:03,42.805,6.029,-0.035,0.001,-0.002,102.0,103.0,101.0,13.4,1505.2,327.4,-0.8,1.8,2469.511,13.28,0.035,271.6
2021-04-10T03:13:03,42.805,6.029,-0.043,-0.021,-0.017,102.0,105.0,100.0,13.4,1505.2,324.8,-0.8,1.8,2469.5,13.28,0.047,244.0
2021-04-10T03:16:03,42.805,6.029,-0.032,-0.028,-0.005,103.0,102.0,100.0,13.4,1505.2,325.1,-0.8,1.8,2469.489,13.28,0.042,228.8
2021-04-10T03:19:03,42.805,6.029,-0.038,-0.007,0.0,104.0,101.0,101.0,13.4,1505.2,327.6,-0.7,1.8,2469.463,13.28,0.038,259.6
2021-04-10T03:22:03,42.805,6.029,-0.026,0.004,-0.019,102.0,103.0,101.0,13.4,1505.2,323.3,-0.7,1.8,2469.456,13.28,0.026,278.7
2021-04-10T03:25:03,42.805,6.029,-0.026,-0.004,0.002,104.0,104.0,100.0,13.4,1505.2,324.3,-0.8,1.8,2469.471,13.28,0.026,261.3
2021-04-10T03:28:03,42.805,6.029,-0.036,-0.021,0.011,103.0,103.0,101.0,13.4,1505.2,327.3,-0.7,1.8,2469.485,13.28,0.041,239.7
2021-04-10T03:31:03,42.805,6.029,-0.025,-0.008,0.001,103.0,104.0,101.0,13.4,1505.2,327.2,-0.8,1.9,2469.41,13.28,0.026,252.3
2021-04-10T03:34:03,42.805,6.029,-0.022,-0.017,-0.01,108.0,105.0,101.0,13.4,1505.2,325.9,-0.8,1.8,2469.455,13.28,0.027,232.3
2021-04-10T03:37:03,42.805,6.029,-0.055,0.005,0.011,105.0,104.0,100.0,13.4,1505.2,325.0,-0.8,1.8,2469.366,13.28,0.055,275.2
2021-04-10T03:40:03,42.805,6.029,-0.041,0.005,0.01,104.0,102.0,101.0,13.4,1505.2,326.7,-0.7,1.8,2469.357,13.28,0.041,277.0
2021-04-10T03:43:03,42.805,6.029,-0.048,-0.006,0.004,103.0,102.0,101.0,13.4,1505.2,327.0,-0.8,1.8,2469.385,13.28,0.048,262.9
2021-04-10T03:46:03,42.805,6.029,-0.026,-0.021,-0.014,101.0,103.0,101.0,13.3,1505.2,324.0,-0.8,1.9,2469.398,13.28,0.033,231.1
2021-04-10T03:49:03,42.805,6.029,-0.02,-0.004,0.008,103.0,105.0,102.0,13.3,1505.2,325.8,-0.7,1.8,2469.347,13.28,0.02,258.7
2021-04-10T03:52:03,42.805,6.029,-0.021,-0.006,0.014,103.0,105.0,101.0,13.4,1505.2,327.5,-0.8,1.8,2469.343,13.28,0.021,254.1
2021-04-10T03:55:03,42.805,6.029,-0.026,0.009,0.01,105.0,105.0,101.0,13.4,1505.2,327.0,-0.7,1.8,2469.355,13.28,0.027,289.1
2021-04-10T03:58:03,42.805,6.029,-0.048,-0.01,-0.001,104.0,104.0,103.0,13.4,1505.2,326.4,-0.7,1.8,2469.378,13.28,0.049,258.2
2021-04-10T04:04:03,42.805,6.029,-0.008,-0.004,-0.014,105.0,102.0,100.0,13.3,1505.2,324.2,-0.7,1.8,2469.334,13.28,0.008,243.4
2021-04-10T04:07:03,42.805,6.029,-0.026,-0.001,0.01,103.0,103.0,101.0,13.4,1505.2,327.5,-0.7,1.8,2469.352,13.28,0.026,267.8
2021-04-10T04:10:03,42.805,6.029,-0.058,-0.011,-0.007,103.0,104.0,100.0,13.3,1505.2,325.3,-0.8,1.8,2469.356,13.28,0.059,259.3
2021-04-10T04:13:03,42.805,6.029,-0.042,-0.011,0.013,101.0,103.0,101.0,13.4,1505.2,325.8,-0.7,1.8,2469.324,13.28,0.043,255.3
2021-04-10T04:16:03,42.805,6.029,-0.024,-0.016,0.005,101.0,103.0,102.0,13.3,1505.2,327.3,-0.7,1.8,2469.336,13.28,0.028,236.3
2021-04-10T04:19:03,42.805,6.029,-0.017,-0.039,-0.025,103.0,103.0,101.0,13.4,1505.2,328.2,-0.8,1.8,2469.35,13.28,0.042,203.5
2021-04-10T04:22:03,42.805,6.029,-0.026,0.0,-0.011,103.0,104.0,102.0,13.4,1505.2,327.5,-0.7,1.9,2469.332,13.28,0.026,270.0
2021-04-10T04:25:03,42.805,6.029,-0.029,-0.005,0.034,104.0,103.0,100.0,13.4,1505.2,326.5,-0.8,1.9,2469.287,13.28,0.029,260.2
2021-04-10T04:28:03,42.805,6.029,-0.013,0.0,-0.005,103.0,103.0,103.0,13.3,1505.2,328.7,-0.7,1.8,2469.349,13.28,0.013,270.0
2021-04-10T04:31:03,42.805,6.029,-0.047,0.009,-0.021,104.0,102.0,102.0,13.4,1505.2,328.1,-0.8,1.8,2469.353,13.28,0.047,280.8
2021-04-10T04:34:03,42.805,6.029,-0.042,-0.01,-0.001,104.0,102.0,101.0,13.4,1505.2,325.8,-0.8,1.9,2469.348,13.28,0.043,256.6
2021-04-10T04:37:03,42.805,6.029,-0.045,-0.02,-0.035,104.0,103.0,100.0,13.4,1505.2,323.7,-0.7,1.8,2469.368,13.28,0.049,246.0
2021-04-10T04:40:03,42.805,6.029,-0.016,-0.011,0.0,104.0,103.0,101.0,13.4,1505.2,327.0,-0.7,1.8,2469.321,13.28,0.019,235.5
2021-04-10T04:43:03,42.805,6.029,-0.026,-0.011,0.004,102.0,103.0,102.0,13.4,1505.2,325.3,-0.8,1.8,2469.35,13.28,0.028,247.1
2021-04-10T04:46:03,42.805,6.029,-0.047,0.013,0.023,105.0,101.0,101.0,13.3,1505.2,326.9,-0.8,1.8,2469.332,13.28,0.048,285.5
2021-04-10T04:49:03,42.805,6.029,-0.042,-0.004,0.031,103.0,104.0,102.0,13.4,1505.2,326.9,-0.8,1.8,2469.347,13.28,0.042,264.6
2021-04-10T04:52:03,42.805,6.029,-0.021,-0.01,-0.011,103.0,105.0,102.0,13.4,1505.2,323.7,-0.7,1.8,2469.322,13.28,0.023,244.5
2021-04-10T04:55:03,42.805,6.029,-0.034,-0.012,-0.005,103.0,100.0,102.0,13.4,1505.2,323.9,-0.7,1.8,2469.356,13.28,0.036,250.6
2021-04-10T04:58:03,42.805,6.029,-0.019,-0.016,0.005,102.0,103.0,101.0,13.3,1505.2,327.8,-0.7,1.8,2469.339,13.28,0.024,229.9
2021-04-10T05:04:03,42.805,6.029,-0.042,0.0,0.04,102.0,102.0,100.0,13.3,1505.2,325.0,-0.8,1.8,2469.358,13.28,0.042,270.0
2021-04-10T05:07:03,42.805,6.029,-0.037,-0.021,0.007,101.0,104.0,101.0,13.4,1505.2,327.2,-0.7,1.8,2469.337,13.28,0.042,240.4
2021-04-10T05:10:03,42.805,6.029,-0.039,-0.008,-0.007,102.0,104.0,99.0,13.4,1505.2,327.1,-0.7,1.8,2469.362,13.28,0.039,258.4
2021-04-10T05:13:03,42.805,6.029,-0.026,-0.014,0.021,103.0,104.0,100.0,13.4,1505.2,324.3,-0.8,1.9,2469.391,13.28,0.029,241.7
2021-04-10T05:16:03,42.805,6.029,-0.048,-0.003,0.014,102.0,102.0,100.0,13.4,1505.2,325.0,-0.8,1.8,2469.342,13.28,0.048,266.4
2021-04-10T05:19:03,42.805,6.029,-0.01,-0.024,-0.014,101.0,105.0,101.0,13.4,1505.2,325.7,-0.8,1.8,2469.363,13.28,0.026,202.6
2021-04-10T05:22:03,42.805,6.029,-0.03,0.0,-0.017,101.0,103.0,101.0,13.3,1505.2,324.3,-0.8,1.8,2469.345,13.28,0.03,270.0
2021-04-10T05:25:03,42.805,6.029,-0.052,0.001,-0.001,105.0,101.0,101.0,13.3,1505.2,324.8,-0.8,1.8,2469.342,13.28,0.052,271.1
2021-04-10T05:28:03,42.805,6.029,-0.045,0.0,0.035,102.0,103.0,100.0,13.4,1505.2,328.8,-0.7,1.8,2469.352,13.28,0.045,270.0
2021-04-10T05:31:03,42.805,6.029,-0.032,0.012,0.0,104.0,103.0,100.0,13.4,1505.2,325.2,-0.8,1.8,2469.349,13.28,0.034,290.6
2021-04-10T05:34:03,42.805,6.029,-0.02,0.003,0.022,102.0,102.0,100.0,13.4,1505.2,328.6,-0.7,1.9,2469.382,13.28,0.02,278.5
2021-04-10T05:37:03,42.805,6.029,-0.008,-0.011,-0.007,103.0,103.0,101.0,13.4,1505.2,325.9,-0.7,1.8,2469.329,13.28,0.013,216.0
2021-04-10T05:40:03,42.805,6.029,-0.032,-0.001,0.004,102.0,102.0,102.0,13.4,1505.2,326.5,-0.8,1.8,2469.367,13.28,0.032,268.2
2021-04-10T05:43:03,42.805,6.029,-0.052,-0.011,0.028,103.0,101.0,101.0,13.4,1505.2,324.3,-0.7,1.9,2469.366,13.28,0.053,258.1
2021-04-10T05:46:03,42.805,6.029,-0.03,-0.001,0.02,102.0,104.0,100.0,13.4,1505.2,328.3,-0.7,1.8,2469.382,13.28,0.03,268.1
2021-04-10T05:49:03,42.805,6.029,-0.015,-0.009,0.022,102.0,103.0,99.0,13.4,1505.2,326.8,-0.7,1.8,2469.371,13.28,0.017,239.0
2021-04-10T05:52:03,42.805,6.029,-0.04,0.008,0.037,103.0,102.0,100.0,13.3,1505.2,329.2,-0.7,1.8,2469.363,13.28,0.04,281.3
2021-04-10T05:55:03,42.805,6.029,-0.043,0.005,0.006,102.0,102.0,100.0,13.4,1505.2,327.7,-0.8,1.9,2469.386,13.28,0.043,276.6
2021-04-10T05:58:03,42.805,6.029,-0.023,-0.014,0.033,103.0,102.0,100.0,13.4,1505.2,324.2,-0.8,1.8,2469.36,13.28,0.026,238.7
2021-04-10T06:04:03,42.805,6.029,-0.032,-0.016,-0.002,101.0,102.0,101.0,13.4,1505.2,326.8,-0.8,1.8,2469.385,13.28,0.035,243.4
2021-04-10T06:07:03,42.805,6.029,0.002,-0.025,0.015,102.0,101.0,100.0,13.4,1505.2,328.4,-0.8,1.8,2469.337,13.28,0.025,175.4
2021-04-10T06:10:03,42.805,6.029,-0.021,-0.008,0.0,104.0,101.0,101.0,13.4,1505.2,325.1,-0.7,1.8,2469.359,13.28,0.022,249.1
2021-04-10T06:13:03,42.805,6.029,-0.022,0.005,0.002,102.0,102.0,100.0,13.4,1505.2,327.8,-0.7,1.8,2469.341,13.28,0.022,282.8
2021-04-10T06:16:03,42.805,6.029,-0.002,-0.007,0.001,104.0,102.0,101.0,13.4,1505.2,323.4,-0.8,1.9,2469.33,13.28,0.007,195.9
2021-04-10T06:19:03,42.805,6.029,-0.023,0.007,0.006,101.0,103.0,100.0,13.4,1505.2,328.2,-0.7,1.8,2469.307,13.29,0.024,286.9
2021-04-10T06:22:03,42.805,6.029,-0.018,-0.003,0.012,103.0,101.0,101.0,13.4,1505.2,328.8,-0.8,1.8,2469.332,13.29,0.018,260.5
2021-04-10T06:25:03,42.805,6.029,-0.039,-0.007,0.019,101.0,103.0,102.0,13.4,1505.2,327.4,-0.7,1.8,2469.369,13.29,0.039,259.8
2021-04-10T06:28:03,42.805,6.029,-0.044,0.0,0.032,102.0,103.0,100.0,13.4,1505.2,327.6,-0.7,1.8,2469.375,13.29,0.044,270.0
2021-04-10T06:31:03,42.805,6.029,-0.021,0.001,0.004,103.0,103.0,100.0,13.3,1505.2,326.3,-0.8,1.8,2469.331,13.29,0.021,272.7
2021-04-10T06:34:03,42.805,6.029,-0.011,-0.011,0.009,101.0,103.0,102.0,13.4,1505.2,328.7,-0.7,1.8,2469.32,13.29,0.015,225.0
2021-04-10T06:37:03,42.805,6.029,-0.015,-0.013,-0.024,102.0,104.0,101.0,13.4,1505.2,326.6,-0.8,1.8,2469.314,13.29,0.019,229.1
2021-04-10T06:40:03,42.805,6.029,-0.02,-0.003,0.005,103.0,103.0,101.0,13.4,1505.2,324.1,-0.7,1.9,2469.334,13.29,0.02,261.5
2021-04-10T06:43:03,42.805,6.029,-0.019,-0.013,-0.009,103.0,103.0,101.0,13.4,1505.2,328.8,-0.8,1.8,2469.308,13.29,0.023,235.6
2021-04-10T06:46:03,42.805,6.029,-0.029,-0.003,-0.021,103.0,103.0,101.0,13.4,1505.2,325.2,-0.7,1.8,2469.27,13.29,0.029,264.1
2021-04-10T06:49:03,42.805,6.029,-0.028,-0.008,0.0,103.0,102.0,100.0,13.3,1505.2,326.6,-0.7,1.8,2469.326,13.29,0.029,254.1
2021-04-10T06:52:03,42.805,6.029,-0.032,-0.011,-0.008,102.0,103.0,101.0,13.4,1505.2,326.3,-0.8,1.8,2469.298,13.29,0.033,251.0
2021-04-10T06:55:03,42.805,6.029,-0.03,-0.01,0.032,102.0,103.0,99.0,13.4,1505.2,326.1,-0.8,1.8,2469.282,13.29,0.031,251.6
2021-04-10T06:58:03,42.805,6.029,-0.044,0.013,0.01,103.0,102.0,101.0,13.4,1505.2,324.9,-0.7,1.8,2469.264,13.29,0.045,286.5
2021-04-10T07:04:03,42.805,6.029,-0.023,-0.014,0.005,104.0,103.0,100.0,13.4,1505.2,325.5,-0.8,1.8,2469.338,13.28,0.026,238.7
2021-04-10T07:07:03,42.805,6.029,-0.037,0.013,0.025,104.0,102.0,100.0,13.3,1505.2,325.4,-0.7,1.8,2469.33,13.29,0.039,289.4
2021-04-10T07:10:03,42.805,6.029,-0.009,-0.013,-0.008,101.0,102.0,101.0,13.4,1505.2,325.9,-0.8,1.9,2469.308,13.29,0.015,214.7
2021-04-10T07:13:03,42.805,6.029,-0.029,-0.012,0.0,102.0,102.0,101.0,13.4,1505.2,323.9,-0.7,1.9,2469.328,13.29,0.031,247.5
2021-04-10T07:16:03,42.805,6.029,-0.022,0.002,0.041,102.0,103.0,102.0,13.4,1505.2,324.0,-0.8,1.8,2469.3,13.29,0.022,275.2
2021-04-10T07:19:03,42.805,6.029,-0.03,-0.012,0.004,101.0,102.0,100.0,13.4,1505.2,325.0,-0.8,1.8,2469.294,13.29,0.032,248.2
2021-04-10T07:22:03,42.805,6.029,-0.006,-0.008,-0.01,103.0,102.0,101.0,13.3,1505.2,326.0,-0.8,1.8,2469.281,13.29,0.01,216.9
2021-04-10T07:25:03,42.805,6.029,-0.03,-0.001,0.029,105.0,101.0,101.0,13.4,1505.2,327.2,-0.8,1.8,2469.268,13.29,0.03,268.1
2021-04-10T07:28:03,42.805,6.029,-0.041,0.009,0.001,101.0,102.0,100.0,13.4,1505.2,323.6,-0.8,1.8,2469.303,13.29,0.041,282.4
2021-04-10T07:31:03,42.805,6.029,-0.04,-0.006,0.006,103.0,100.0,99.0,13.4,1505.2,325.9,-0.8,1.8,2469.271,13.29,0.04,261.5
2021-04-10T07:34:03,42.805,6.029,-0.016,0.017,0.042,103.0,104.0,100.0,13.4,1505.2,326.6,-0.7,1.9,2469.235,13.29,0.023,316.7
2021-04-10T07:37:03,42.805,6.029,-0.026,-0.015,-0.008,105.0,101.0,100.0,13.4,1505.2,324.7,-0.7,1.8,2469.231,13.29,0.03,240.0
2021-04-10T07:40:03,42.805,6.029,-0.01,-0.002,0.026,103.0,102.0,100.0,13.4,1505.2,325.6,-0.7,1.8,2469.242,13.29,0.01,258.7
2021-04-10T07:43:03,42.805,6.029,-0.031,-0.02,-0.004,103.0,103.0,100.0,13.3,1505.2,328.2,-0.8,1.8,2469.23,13.29,0.036,237.2
2021-04-10T07:46:03,42.805,6.029,-0.025,-0.02,0.016,103.0,103.0,101.0,13.3,1505.2,327.4,-0.7,1.9,2469.23,13.29,0.032,231.3
2021-04-10T07:49:03,42.805,6.029,-0.025,-0.006,0.034,102.0,103.0,102.0,13.3,1505.2,326.1,-0.8,1.8,2469.176,13.29,0.025,256.5
2021-04-10T07:52:03,42.805,6.029,-0.023,-0.003,0.02,104.0,101.0,100.0,13.4,1505.2,328.8,-0.8,1.8,2469.153,13.29,0.023,262.6
2021-04-10T07:55:03,42.805,6.029,-0.033,-0.005,0.023,103.0,102.0,100.0,13.4,1505.2,325.3,-0.7,1.8,2469.208,13.29,0.033,261.4
2021-04-10T07:58:03,42.805,6.029,-0.006,-0.018,0.0,104.0,103.0,100.0,13.4,1505.2,325.2,-0.8,1.8,2469.155,13.29,0.018,198.4
2021-04-10T08:04:03,42.805,6.029,-0.01,-0.023,0.008,101.0,102.0,101.0,13.4,1505.2,327.5,-0.8,1.8,2469.154,13.28,0.025,203.5
2021-04-10T08:07:03,42.805,6.029,-0.013,0.018,0.024,103.0,102.0,101.0,13.4,1505.2,328.7,-0.7,1.8,2469.147,13.29,0.022,324.2
2021-04-10T08:10:03,42.805,6.029,-0.016,-0.016,0.002,102.0,104.0,101.0,13.3,1505.2,327.2,-0.7,1.8,2469.102,13.29,0.022,225.0
2021-04-10T08:13:03,42.805,6.029,-0.015,-0.001,-0.023,104.0,102.0,101.0,13.4,1505.2,323.5,-0.7,1.8,2469.111,13.29,0.015,266.2
2021-04-10T08:16:03,42.805,6.029,-0.025,0.001,0.0,102.0,102.0,99.0,13.4,1505.2,323.6,-0.7,1.9,2469.063,13.29,0.025,272.3
2021-04-10T08:19:03,42.805,6.029,0.0,0.002,0.008,101.0,103.0,100.0,13.4,1505.2,324.8,-0.7,1.8,2469.092,13.29,0.002,0.0
2021-04-10T08:22:03,42.805,6.029,-0.018,-0.02,0.008,103.0,104.0,100.0,13.4,1505.2,328.7,-0.8,1.8,2469.03,13.29,0.026,222.0
2021-04-10T08:25:03,42.805,6.029,-0.02,0.006,0.035,103.0,102.0,100.0,13.4,1505.2,327.7,-0.7,1.8,2469.033,13.29,0.02,286.7
2021-04-10T08:28:03,42.805,6.029,-0.015,-0.006,0.005,103.0,105.0,102.0,13.3,1505.2,328.6,-0.8,1.8,2469.062,13.29,0.016,248.2
2021-04-10T08:31:03,42.805,6.029,-0.02,-0.014,0.008,101.0,104.0,100.0,13.3,1505.2,325.3,-0.8,1.8,2469.059,13.29,0.024,235.0
2021-04-10T08:34:03,42.805,6.029,-0.015,-0.018,-0.004,101.0,103.0,99.0,13.3,1505.2,325.5,-0.7,1.8,2469.066,13.29,0.023,219.8
2021-04-10T08:37:03,42.805,6.029,-0.027,-0.006,-0.022,102.0,102.0,100.0,13.4,1505.2,324.0,-0.8,1.8,2469.025,13.29,0.027,257.5
2021-04-10T08:40:03,42.805,6.029,-0.024,-0.017,0.006,104.0,103.0,101.0,13.4,1505.2,328.5,-0.8,1.8,2469.049,13.29,0.029,234.7
2021-04-10T08:43:03,42.805,6.029,0.0,-0.014,-0.041,105.0,103.0,101.0,13.4,1505.2,325.4,-0.8,1.8,2469.029,13.29,0.014,180.0
2021-04-10T08:46:03,42.805,6.029,-0.008,-0.014,0.003,102.0,104.0,102.0,13.4,1505.2,327.8,-0.8,1.8,2469.019,13.29,0.016,209.7
2021-04-10T08:49:03,42.805,6.029,-0.007,-0.003,0.025,104.0,101.0,100.0,13.3,1505.2,325.1,-0.7,1.8,2469.007,13.29,0.007,246.8
2021-04-10T08:52:03,42.805,6.029,-0.026,0.013,-0.004,104.0,106.0,100.0,13.3,1505.2,326.1,-0.8,1.8,2469.057,13.29,0.029,296.6
2021-04-10T08:55:03,42.805,6.029,-0.01,-0.002,0.016,103.0,103.0,100.0,13.3,1505.2,325.2,-0.8,1.8,2469.065,13.29,0.01,258.7
2021-04-10T08:58:03,42.805,6.029,-0.014,-0.007,0.005,101.0,103.0,100.0,13.4,1505.2,327.4,-0.7,1.8,2469.058,13.29,0.015,243.4
2021-04-10T09:04:03,42.805,6.029,-0.004,-0.001,0.02,103.0,104.0,101.0,13.4,1505.2,328.8,-0.8,1.8,2469.118,13.29,0.004,256.0
2021-04-10T09:07:03,42.805,6.029,0.005,-0.013,0.012,103.0,103.0,101.0,13.3,1505.2,326.2,-0.7,1.8,2469.116,13.29,0.013,159.0
2021-04-10T09:10:03,42.805,6.029,-0.005,-0.019,0.008,102.0,102.0,100.0,13.4,1505.2,326.5,-0.8,1.8,2469.145,13.29,0.019,194.7
2021-04-10T09:13:03,42.805,6.029,-0.01,-0.021,0.001,101.0,105.0,100.0,13.4,1505.2,328.3,-0.7,1.8,2469.134,13.29,0.023,205.5
2021-04-10T09:16:03,42.805,6.029,-0.005,0.004,0.021,102.0,102.0,101.0,13.3,1505.2,327.5,-0.7,1.8,2469.132,13.29,0.006,308.7
2021-04-10T09:19:03,42.805,6.029,-0.019,-0.011,0.015,103.0,102.0,101.0,13.4,1505.2,324.7,-0.8,1.8,2469.134,13.29,0.021,239.9
2021-04-10T09:22:03,42.805,6.029,-0.007,0.006,0.01,104.0,101.0,101.0,13.3,1505.2,324.9,-0.7,1.8,2469.164,13.29,0.009,310.6
2021-04-10T09:25:03,42.805,6.029,-0.03,-0.02,-0.047,102.0,103.0,100.0,13.4,1505.2,323.9,-0.8,1.8,2469.143,13.29,0.036,236.3
2021-04-10T09:28:03,42.805,6.029,-0.021,-0.008,0.003,103.0,102.0,100.0,13.3,1505.2,323.5,-0.8,1.8,2469.189,13.29,0.022,249.1
2021-04-10T09:31:03,42.805,6.029,-0.021,-0.008,-0.016,101.0,102.0,102.0,13.4,1505.2,327.9,-0.7,1.8,2469.156,13.29,0.022,249.1
2021-04-10T09:34:03,42.805,6.029,-0.011,0.0,-0.004,101.0,103.0,101.0,13.4,1505.2,326.7,-0.7,1.8,2469.148,13.29,0.011,270.0
2021-04-10T09:37:03,42.805,6.029,-0.016,-0.009,-0.011,101.0,105.0,98.0,13.4,1505.2,325.3,-0.8,1.8,2469.205,13.29,0.018,240.6
2021-04-10T09:40:03,42.805,6.029,-0.017,-0.016,0.015,103.0,102.0,100.0,13.4,1505.2,325.4,-0.7,1.8,2469.146,13.29,0.023,226.7
2021-04-10T09:43:03,42.805,6.029,-0.011,-0.017,0.006,104.0,102.0,99.0,13.3,1505.2,325.3,-0.8,1.8,2469.199,13.29,0.02,212.9
2021-04-10T09:46:03,42.805,6.029,-0.021,-0.04,-0.003,104.0,101.0,101.0,13.4,1505.2,324.2,-0.7,1.8,2469.259,13.29,0.045,207.7
2021-04-10T09:49:03,42.805,6.029,0.0,-0.013,-0.01,101.0,103.0,102.0,13.3,1505.2,324.5,-0.8,1.8,2469.262,13.29,0.013,180.0
2021-04-10T09:52:03,42.805,6.029,-0.016,-0.025,-0.012,103.0,102.0,102.0,13.4,1505.2,328.4,-0.8,1.8,2469.278,13.29,0.029,212.6